FW1589 Weather Reports


Display with metric or nautical units.
time (UTC)temp
F
wind
direction
speed
MPH
gust
MPH
rain 1hr
in
rain 24hr
in
rain mn
in
humidity
%
barometer
mb
20260504231121 59 202 2.0 8.0 0.00 0.00 0.00 80 997.6
20260504230620 59 273 3.0 8.0 0.00 0.00 0.00 80 997.6
20260504230120 59 226 3.0 8.0 0.00 0.00 0.00 79 997.6
20260504225621 59 269 3.0 8.0 0.00 0.00 0.00 79 997.5
20260504225121 59 250 3.0 8.0 0.00 0.00 0.00 78 997.5
20260504224620 59 217 3.0 6.0 0.00 0.00 0.00 78 997.6
20260504224121 60 197 2.0 6.0 0.00 0.00 0.00 77 997.6
20260504223120 60 230 3.0 8.0 0.00 0.00 0.00 76 997.8
20260504222622 60 197 3.0 7.0 0.00 0.00 0.00 75 997.7
20260504222120 61 194 3.0 7.0 0.00 0.00 0.00 74 997.7
20260504221622 62 202 2.0 4.0 0.00 0.00 0.00 73 997.8
20260504221115 62 246 3.0 6.0 0.00 0.00 0.00 73 997.9
20260504220610 63 254 3.0 6.0 0.00 0.00 0.00 73 997.9
20260504220104 63 202 3.0 6.0 0.00 0.00 0.00 73 997.8
20260504215558 63 213 3.0 8.0 0.00 0.00 0.00 73 997.8
20260504215058 62 273 3.0 8.0 0.00 0.00 0.00 74 997.9
20260504214557 62 215 3.0 7.0 0.00 0.00 0.00 76 997.9
20260504214058 61 261 4.0 8.0 0.00 0.00 0.00 75 997.8
20260504213555 61 247 4.0 9.0 0.00 0.00 0.00 74 997.9
20260504213054 61 225 3.0 9.0 0.00 0.00 0.00 73 997.8
20260504212556 61 276 3.0 7.0 0.00 0.00 0.00 75 997.9
20260504212054 61 260 3.0 7.0 0.00 0.00 0.00 75 997.9
20260504211554 61 232 3.0 7.0 0.00 0.00 0.00 75 998.0
20260504211055 61 224 3.0 7.0 0.00 0.00 0.00 76 997.9
20260504210051 61 221 3.0 9.0 0.00 0.00 0.00 75 997.8
20260504205552 61 227 3.0 8.0 0.00 0.00 0.00 75 997.9
20260504205051 61 207 3.0 8.0 0.00 0.00 0.00 74 998.0
20260504204051 61 229 4.0 7.0 0.00 0.00 0.00 74 998.1
20260504203552 60 215 4.0 8.0 0.00 0.00 0.00 76 998.1
20260504203051 60 237 4.0 8.0 0.00 0.00 0.00 75 998.0
20260504202552 61 210 4.0 8.0 0.00 0.00 0.00 74 998.0
20260504202046 61 222 4.0 8.0 0.00 0.00 0.00 72 997.9
20260504201548 62 284 3.0 8.0 0.00 0.00 0.00 72 997.9
20260504201048 62 213 4.0 8.0 0.00 0.00 0.00 71 997.8
20260504200547 62 181 3.0 9.0 0.00 0.00 0.00 70 997.8
20260504200047 62 268 3.0 11.0 0.00 0.00 0.00 71 997.9
20260504195549 62 249 3.0 11.0 0.00 0.00 0.00 69 998.0
20260504195046 62 238 3.0 7.0 0.00 0.00 0.00 69 998.0
20260504194547 62 210 4.0 7.0 0.00 0.00 0.00 70 998.1
20260504194048 62 236 4.0 8.0 0.00 0.00 0.00 70 998.1
20260504193042 62 204 4.0 10.0 0.00 0.00 0.00 66 998.0
20260504192542 62 258 4.0 9.0 0.00 0.00 0.00 65 997.9
20260504192042 63 264 4.0 9.0 0.00 0.00 0.00 67 998.0
20260504191540 63 244 4.0 8.0 0.00 0.00 0.00 67 998.0
20260504191040 63 182 3.0 8.0 0.00 0.00 0.00 66 998.1
20260504190540 63 242 4.0 10.0 0.00 0.00 0.00 66 998.1
20260504190039 63 230 4.0 10.0 0.00 0.00 0.00 65 998.2
20260504185537 63 264 4.0 10.0 0.00 0.00 0.00 67 998.1
20260504185035 63 260 4.0 10.0 0.00 0.00 0.00 69 998.1
20260504184533 62 271 4.0 8.0 0.00 0.00 0.00 70 998.1
20260504184032 62 277 3.0 7.0 0.00 0.00 0.00 68 998.1
20260504183031 62 265 3.0 10.0 0.00 0.00 0.00 69 998.1
20260504182530 62 198 4.0 9.0 0.00 0.00 0.00 69 998.1
20260504182030 62 242 4.0 9.0 0.00 0.00 0.00 71 998.0
20260504181530 62 273 4.0 8.0 0.00 0.00 0.00 70 998.0
20260504181029 62 240 3.0 8.0 0.00 0.00 0.00 71 997.9
20260504180526 62 196 3.0 6.0 0.00 0.00 0.00 69 997.9
20260504180028 62 223 3.0 6.0 0.00 0.00 0.00 69 997.9
20260504175524 62 248 3.0 7.0 0.00 0.00 0.00 70 998.0
20260504175024 62 236 3.0 7.0 0.00 0.00 0.00 70 998.0
20260504174525 62 292 2.0 6.0 0.00 0.00 0.00 71 997.9
20260504174025 62 304 3.0 6.0 0.00 0.00 0.00 73 997.8
20260504173525 61 207 3.0 7.0 0.00 0.00 0.00 72 997.8
20260504173023 61 215 4.0 8.0 0.00 0.00 0.00 74 997.8
20260504172522 61 225 4.0 8.0 0.00 0.00 0.00 74 997.7
20260504172022 60 184 3.0 6.0 0.00 0.00 0.00 76 997.8
20260504170521 59 168 3.0 7.0 0.00 0.00 0.00 79 997.8
20260504160427 56 270 1.0 3.0 0.00 0.00 0.00 86 997.5
20260504150820 54 238 0.0 0.0 0.00 0.00 0.00 89 997.5
20260504150315 54 239 0.0 0.0 0.00 0.00 0.00 90 997.5
20260504141214 52 205 0.0 0.0 0.00 0.00 0.00 89 997.4
20260504140709 52 205 0.0 0.0 0.00 0.00 0.00 89 997.3
20260504140203 52 205 0.0 0.0 0.00 0.00 0.00 89 997.3
20260504130557 52 206 0.0 0.0 0.00 0.00 0.00 88 996.9
20260504110455 53 260 0.0 1.0 0.00 0.00 0.00 87 996.8
20260504100444 53 260 0.0 3.0 0.00 0.00 0.00 87 996.7
20260504081937 54 250 2.0 8.0 0.00 0.00 0.00 87 997.0
20260504081435 54 227 1.0 4.0 0.00 0.00 0.00 87 997.0
20260504050720 55 258 1.0 4.0 0.00 0.00 0.00 84 997.0
20260504050217 54 264 1.0 4.0 0.00 0.00 0.00 84 996.8
20260504045718 54 269 1.0 5.0 0.00 0.00 0.00 84 996.8
20260504045217 54 256 1.0 5.0 0.00 0.00 0.00 84 996.7
20260504044717 54 266 2.0 7.0 0.00 0.00 0.00 84 996.7
20260504044217 54 270 2.0 7.0 0.00 0.00 0.00 84 996.6
20260504042215 54 281 1.0 6.0 0.00 0.00 0.00 84 996.7
20260504041716 54 226 1.0 3.0 0.00 0.00 0.00 84 996.5
20260504040712 55 172 1.0 3.0 0.00 0.00 0.00 84 996.4
20260504040211 55 277 1.0 3.0 0.00 0.00 0.00 84 996.3
20260504035709 55 263 1.0 4.0 0.00 0.00 0.00 84 996.3
20260504035206 55 221 1.0 5.0 0.00 0.00 0.00 84 996.3
20260504034702 55 225 1.0 4.0 0.00 0.00 0.00 84 996.2
20260504034155 55 232 2.0 4.0 0.00 0.00 0.00 84 996.2
20260504033145 55 236 2.0 8.0 0.00 0.00 0.00 84 996.1
20260504031646 55 232 2.0 7.0 0.00 0.00 0.00 84 995.9
20260504030646 55 215 2.0 7.0 0.00 0.00 0.00 82 995.9
20260504030143 56 223 2.0 5.0 0.00 0.00 0.00 82 996.0
20260504025644 56 211 3.0 8.0 0.00 0.00 0.00 81 995.9
20260504025144 56 213 3.0 8.0 0.00 0.00 0.00 80 995.9
20260504024139 56 246 3.0 8.0 0.00 0.00 0.00 80 995.7
20260504023138 56 235 4.0 10.0 0.00 0.00 0.00 79 995.5
20260504022639 56 211 4.0 10.0 0.00 0.00 0.00 79 995.5
20260504021638 57 252 2.0 8.0 0.00 0.00 0.00 80 995.6
20260504021138 57 264 2.0 10.0 0.00 0.00 0.00 80 995.5
20260504020640 57 265 2.0 10.0 0.00 0.00 0.00 80 995.5
20260504020134 57 245 2.0 8.0 0.00 0.00 0.00 79 995.5
20260504015628 57 274 2.0 8.0 0.00 0.00 0.00 79 995.6
20260504014616 57 263 4.0 13.0 0.00 0.00 0.00 79 995.7
20260504014110 57 153 3.0 8.0 0.00 0.00 0.00 78 995.7
20260504013604 58 211 3.0 7.0 0.00 0.00 0.00 79 995.7
20260504013058 58 279 2.0 9.0 0.00 0.00 0.00 79 995.8
20260504012555 58 264 3.0 9.0 0.00 0.00 0.00 79 995.7
20260504012055 58 252 3.0 8.0 0.00 0.00 0.00 79 995.8
20260504011553 58 209 3.0 7.0 0.00 0.00 0.00 79 995.7
20260504010549 58 257 3.0 9.0 0.00 0.00 0.00 78 995.9
20260504010047 58 278 3.0 8.0 0.00 0.00 0.00 78 995.9
20260504005545 58 225 3.0 8.0 0.00 0.00 0.00 78 995.9
20260504005043 58 266 3.0 7.0 0.00 0.00 0.00 78 995.9
20260504004543 58 213 4.0 9.0 0.00 0.00 0.00 78 995.9
20260504004042 58 199 3.0 9.0 0.00 0.00 0.00 77 995.9
20260504003543 58 225 3.0 11.0 0.00 0.00 0.00 77 995.9
20260504003044 58 210 3.0 11.0 0.00 0.00 0.00 77 995.7
20260504002542 58 273 4.0 10.0 0.00 0.00 0.00 77 995.6
20260504002040 58 279 3.0 7.0 0.00 0.00 0.00 77 995.6
20260504001540 58 234 3.0 11.0 0.00 0.00 0.00 77 995.7
20260504001041 58 266 3.0 11.0 0.00 0.00 0.00 77 995.6
20260504000541 58 242 4.0 8.0 0.00 0.00 0.00 77 995.6
20260503235542 58 198 4.0 11.0 0.00 0.00 0.00 77 995.5
20260503235036 58 294 3.0 9.0 0.00 0.00 0.00 77 995.5
20260503234530 58 232 3.0 6.0 0.00 0.00 0.00 77 995.5
20260503234029 58 298 4.0 11.0 0.00 0.00 0.00 77 995.6
20260503233530 58 208 4.0 11.0 0.00 0.00 0.00 76 995.6
20260503232528 58 272 3.0 10.0 0.00 0.00 0.00 75 995.6
20260503232029 59 255 4.0 13.0 0.00 0.00 0.00 75 995.6